Location: Girdwood
(60.9430°N, 149.1660°W)
Time: 17:27:29
(UTC-08:00)

Iridium 86 - Visible Passes

Search period start: 27 July 2015 00:00
Search period end: 06 August 2015 00:00
Orbit: 776 x 779 km, 86.4° (Epoch: 27 July)

Date Brightness Start Highest point End Pass type
(mag) Time Alt. Az. Time Alt. Az. Time Alt. Az.
27 Jul 5.6 00:14:23 10° S 00:19:33 70° E 00:24:47 10° N visible
27 Jul 7.1 01:56:13 10° SW 02:00:48 30° WNW 02:05:23 10° N visible
28 Jul 6.6 01:22:00 10° SW 01:26:58 43° WNW 01:31:58 10° N visible
28 Jul 8.0 03:06:57 10° WNW 03:09:18 13° NW 03:11:30 10° NNW visible
29 Jul 6.0 00:48:04 10° SSW 00:53:16 63° WNW 00:58:29 10° N visible
29 Jul 7.9 02:31:39 10° W 02:35:10 18° NW 02:38:35 10° NNW visible
30 Jul 5.6 00:14:25 10° S 00:19:39 88° E 00:24:56 10° N visible
30 Jul 7.5 01:56:54 10° WSW 02:01:09 24° WNW 02:05:22 10° N visible
30 Jul 5.7 23:41:02 10° SSE 23:46:09 60° E 23:51:19 10° N visible
31 Jul 7.0 01:22:29 10° SW 01:27:15 34° WNW 01:32:01 10° N visible
31 Jul 8.3 03:08:52 10° NW 03:09:49 10° NW 03:10:35 10° NW visible
01 Aug 6.3 00:48:23 10° SSW 00:53:28 50° WNW 00:58:34 10° N visible
01 Aug 8.0 02:32:44 10° W 02:35:37 14° NW 02:38:23 10° NNW visible
02 Aug 5.8 00:14:34 10° SSW 00:19:47 74° W 00:25:03 10° N visible
02 Aug 7.8 01:57:41 10° WSW 02:01:32 20° WNW 02:05:18 10° N visible
02 Aug 5.6 23:41:01 10° S 23:46:14 76° E 23:51:29 10° N visible
03 Aug 7.3 01:23:05 10° WSW 01:27:34 28° WNW 01:32:01 10° N visible
04 Aug 6.8 00:48:48 10° SW 00:53:42 39° WNW 00:58:37 10° N visible
04 Aug 8.2 02:34:07 10° WNW 02:36:06 12° NW 02:37:56 10° NNW visible
05 Aug 6.1 00:14:49 10° SSW 00:19:57 58° WNW 00:25:09 10° N visible
05 Aug 8.0 01:58:38 10° W 02:01:57 16° NW 02:05:10 10° NNW visible
05 Aug 5.6 23:41:06 10° S 23:46:20 85° W 23:51:37 10° N visible
